When you browse on this site, cookies collect data to enhance your experience and personalize the content and advertising you see.
Visit our Privacy Policy to learn more. By continuing to use the site, you agree to this use of cookies and data.
  • In Latvia
  • List of Countries
  • For 7 days
  • Water Temperature
  • Satellite Maps
  • Weather Map
  • Weather Widgets
  • user-avatar
    Login

    Hourly Weather Prutnya

    Today, 24 April, Wednesday

    Time Temperature Precipitation Wind Pressure Humidity
    00:00 +9°C° 0 mm 2 mps 756 mmHg 66%
    01:00 +9°C° 0 mm 2 mps 756 mmHg 68%
    02:00 +9°C° 0 mm 1 mps 757 mmHg 70%
    03:00 +9°C° 0 mm 1 mps 757 mmHg 70%
    04:00 +9°C° 0 mm 1 mps 757 mmHg 71%
    05:00 +8°C° 0 mm 2 mps 757 mmHg 71%
    06:00 +10°C° 0 mm 2 mps 757 mmHg 65%
    07:00 +13°C° 0 mm 2 mps 757 mmHg 58%
    08:00 +16°C° 0 mm 2 mps 757 mmHg 51%
    09:00 +17°C° 0 mm 2 mps 757 mmHg 46%
    10:00 +19°C° 0 mm 2 mps 757 mmHg 41%
    11:00 +20°C° 0 mm 2 mps 757 mmHg 36%
    12:00 +21°C° 0 mm 2 mps 757 mmHg 35%
    13:00 +21°C° 0 mm 3 mps 757 mmHg 35%
    14:00 +24°C° 0 mm 2 mps 756 mmHg 32%
    15:00 +24°C° 0 mm 1 mps 756 mmHg 35%
    16:00 +23°C° 0 mm 1 mps 755 mmHg 38%
    17:00 +23°C° 0 mm 1 mps 755 mmHg 40%
    18:00 +21°C° 0 mm 1 mps 755 mmHg 46%
    19:00 +18°C° 0 mm 1 mps 755 mmHg 51%
    20:00 +15°C° 0 mm 1 mps 755 mmHg 56%
    21:00 +14°C° 0 mm 1 mps 755 mmHg 58%
    22:00 +14°C° 0 mm 1 mps 755 mmHg 60%
    23:00 +13°C° 0 mm 1 mps 755 mmHg 62%

    Tomorrow, 25 April, Thursday

    Time Temperature Precipitation Wind Pressure Humidity
    00:00 +12°C° 0 mm 1 mps 755 mmHg 64%
    01:00 +12°C° 0 mm 1 mps 755 mmHg 66%
    02:00 +11°C° 0 mm 1 mps 756 mmHg 67%
    03:00 +11°C° 0 mm 1 mps 756 mmHg 69%
    04:00 +11°C° 0 mm 1 mps 756 mmHg 70%
    05:00 +10°C° 0 mm 0 mps 755 mmHg 72%
    06:00 +12°C° 0 mm 0 mps 755 mmHg 65%
    07:00 +14°C° 0 mm 0 mps 755 mmHg 58%
    08:00 +17°C° 0 mm 0 mps 755 mmHg 50%
    09:00 +19°C° 0 mm 0 mps 755 mmHg 45%
    10:00 +20°C° 0 mm 0 mps 755 mmHg 40%
    11:00 +22°C° 0 mm 0 mps 755 mmHg 34%
    12:00 +22°C° 0 mm 0 mps 755 mmHg 33%
    13:00 +25°C° 0 mm 1 mps 754 mmHg 31%
    14:00 +25°C° 0 mm 1 mps 754 mmHg 30%
    15:00 +23°C° 0 mm 1 mps 754 mmHg 35%
    16:00 +22°C° 0 mm 1 mps 753 mmHg 40%
    17:00 +18°C° 0 mm 0 mps 753 mmHg 45%
    18:00 +18°C° 0 mm 0 mps 753 mmHg 46%
    19:00 +17°C° 0 mm 0 mps 753 mmHg 47%
    20:00 +16°C° 0 mm 0 mps 753 mmHg 48%
    21:00 +16°C° 0 mm 0 mps 753 mmHg 49%
    22:00 +15°C° 0 mm 0 mps 753 mmHg 50%
    23:00 +15°C° 0 mm 0 mps 753 mmHg 51%

    Day after tomorrow, 26 April, Friday

    Time Temperature Precipitation Wind Pressure Humidity
    00:00 +15°C° 0 mm 0 mps 753 mmHg 54%
    01:00 +14°C° 0 mm 0 mps 753 mmHg 56%
    02:00 +14°C° 0 mm 0 mps 753 mmHg 58%
    03:00 +14°C° 0.2 mm 1 mps 753 mmHg 62%
    04:00 +14°C° 0.2 mm 1 mps 753 mmHg 65%
    05:00 +13°C° 0.2 mm 1 mps 753 mmHg 69%
    06:00 +15°C° 0 mm 1 mps 753 mmHg 65%
    07:00 +16°C° 0 mm 1 mps 753 mmHg 61%
    08:00 +18°C° 0 mm 1 mps 752 mmHg 57%
    09:00 +19°C° 0 mm 1 mps 752 mmHg 54%
    10:00 +20°C° 0 mm 1 mps 752 mmHg 51%
    11:00 +21°C° 0 mm 1 mps 752 mmHg 49%
    12:00 +22°C° 0 mm 1 mps 752 mmHg 43%
    13:00 +23°C° 0 mm 2 mps 751 mmHg 38%
    14:00 +23°C° 0 mm 2 mps 751 mmHg 33%
    15:00 +23°C° 0 mm 1 mps 750 mmHg 36%
    16:00 +22°C° 0 mm 1 mps 750 mmHg 39%
    17:00 +22°C° 0 mm 1 mps 750 mmHg 43%
    18:00 +20°C° 0 mm 1 mps 750 mmHg 46%
    19:00 +18°C° 0 mm 1 mps 750 mmHg 50%
    20:00 +16°C° 0 mm 2 mps 749 mmHg 54%
    21:00 +15°C° 0 mm 2 mps 749 mmHg 55%
    22:00 +15°C° 0 mm 2 mps 749 mmHg 57%
    23:00 +14°C° 0 mm 2 mps 749 mmHg 59%

    27 April, Saturday

    Time Temperature Precipitation Wind Pressure Humidity
    00:00 +14°C° 0 mm 2 mps 748 mmHg 62%
    01:00 +13°C° 0 mm 1 mps 748 mmHg 66%
    02:00 +12°C° 0 mm 1 mps 748 mmHg 69%
    03:00 +12°C° 0.2 mm 1 mps 747 mmHg 74%
    04:00 +12°C° 0.2 mm 1 mps 747 mmHg 78%
    05:00 +11°C° 0.2 mm 1 mps 746 mmHg 82%
    06:00 +13°C° 0 mm 2 mps 746 mmHg 77%
    07:00 +15°C° 0 mm 2 mps 746 mmHg 71%
    08:00 +17°C° 0 mm 2 mps 746 mmHg 65%
    09:00 +18°C° 0.1 mm 2 mps 746 mmHg 58%
    10:00 +20°C° 0.1 mm 2 mps 745 mmHg 50%
    11:00 +21°C° 0.1 mm 2 mps 745 mmHg 42%
    12:00 +21°C° 0 mm 2 mps 745 mmHg 42%
    13:00 +21°C° 0 mm 2 mps 744 mmHg 43%
    14:00 +20°C° 0 mm 2 mps 744 mmHg 43%
    15:00 +21°C° 0 mm 1 mps 744 mmHg 45%
    16:00 +21°C° 0 mm 1 mps 743 mmHg 47%
    17:00 +21°C° 0 mm 1 mps 743 mmHg 49%
    18:00 +19°C° 0 mm 1 mps 743 mmHg 55%
    19:00 +16°C° 0 mm 2 mps 743 mmHg 61%
    20:00 +15°C° 0 mm 2 mps 743 mmHg 67%
    21:00 +14°C° 0.1 mm 2 mps 744 mmHg 69%
    22:00 +13°C° 0.1 mm 2 mps 744 mmHg 72%
    23:00 +13°C° 0.1 mm 2 mps 744 mmHg 74%

    28 April, Sunday

    Time Temperature Precipitation Wind Pressure Humidity
    00:00 +11°C° 0 mm 3 mps 744 mmHg 76%
    01:00 +9°C° 0 mm 3 mps 745 mmHg 77%
    02:00 +7°C° 0 mm 4 mps 745 mmHg 78%
    03:00 +7°C° 0 mm 4 mps 746 mmHg 76%
    04:00 +6°C° 0 mm 5 mps 746 mmHg 74%
    05:00 +6°C° 0 mm 5 mps 747 mmHg 71%
    06:00 +6°C° 0 mm 5 mps 748 mmHg 66%
    07:00 +6°C° 0 mm 5 mps 748 mmHg 60%
    08:00 +6°C° 0 mm 5 mps 749 mmHg 55%
    09:00 +7°C° 0 mm 5 mps 749 mmHg 51%
    10:00 +8°C° 0 mm 5 mps 750 mmHg 47%
    11:00 +8°C° 0 mm 5 mps 750 mmHg 43%
    12:00 +9°C° 0 mm 5 mps 751 mmHg 42%
    13:00 +9°C° 0 mm 5 mps 751 mmHg 40%
    14:00 +9°C° 0 mm 5 mps 751 mmHg 39%
    15:00 +8°C° 0 mm 5 mps 751 mmHg 38%
    16:00 +8°C° 0 mm 5 mps 752 mmHg 38%
    17:00 +7°C° 0 mm 5 mps 752 mmHg 37%
    18:00 +6°C° 0 mm 4 mps 753 mmHg 42%
    19:00 +4°C° 0 mm 3 mps 753 mmHg 48%
    20:00 +3°C° 0 mm 3 mps 754 mmHg 53%
    21:00 +3°C° 0 mm 2 mps 754 mmHg 56%
    22:00 +2°C° 0 mm 2 mps 755 mmHg 59%
    23:00 +2°C° 0 mm 2 mps 755 mmHg 62%

    29 April, Monday

    Time Temperature Precipitation Wind Pressure Humidity
    00:00 +1°C° 0 mm 2 mps 755 mmHg 64%
    01:00 +1°C° 0 mm 2 mps 756 mmHg 66%
    02:00 -1°C° 0 mm 2 mps 756 mmHg 68%
    03:00 -1°C° 0 mm 2 mps 756 mmHg 68%
    04:00 -1°C° 0 mm 2 mps 756 mmHg 69%
    05:00 -1°C° 0 mm 2 mps 756 mmHg 69%
    06:00 +2°C° 0 mm 2 mps 757 mmHg 61%
    07:00 +3°C° 0 mm 2 mps 757 mmHg 53%
    08:00 +5°C° 0 mm 2 mps 757 mmHg 45%
    09:00 +6°C° 0 mm 2 mps 757 mmHg 41%
    10:00 +7°C° 0 mm 2 mps 757 mmHg 37%
    11:00 +8°C° 0 mm 2 mps 757 mmHg 33%
    12:00 +9°C° 0 mm 2 mps 756 mmHg 31%
    13:00 +9°C° 0 mm 2 mps 756 mmHg 30%
    14:00 +10°C° 0 mm 2 mps 756 mmHg 29%
    15:00 +10°C° 0 mm 2 mps 755 mmHg 30%
    16:00 +9°C° 0 mm 3 mps 755 mmHg 31%
    17:00 +9°C° 0 mm 3 mps 755 mmHg 32%
    18:00 +7°C° 0 mm 2 mps 755 mmHg 38%
    19:00 +6°C° 0 mm 2 mps 756 mmHg 44%
    20:00 +5°C° 0 mm 1 mps 756 mmHg 50%
    21:00 +4°C° 0 mm 1 mps 756 mmHg 52%
    22:00 +3°C° 0 mm 1 mps 756 mmHg 55%
    23:00 +3°C° 0 mm 1 mps 757 mmHg 58%
    Show more